Regional Weather Roundup
Issued by NWS

Home | Current Version | Previous Version | Text Only | Print | Product List | Glossary Off
Versions: 1 2 3 4 5 6 7 8 9 10 11 12 13 14 15 16 17 18 19 20 21 22 23 24 25 26 27

000
ASUS45 KCYS 192310
RWRWY

WYOMING REGIONAL WEATHER ROUNDUP
NATIONAL WEATHER SERVICE CHEYENNE WY
400 PM MST SUN NOV 19 2017

NOTE:  "FAIR" INDICATES FEW OR NO CLOUDS BELOW 12,000 FEET
WITH NO SIGNIFICANT WEATHER AND/OR OBSTRUCTIONS TO VISIBILITY.

WYZ001-200000-
YELLOWSTONE NATIONAL PARK

CITY           SKY/WX    TMP DP  RH WIND       PRES   REMARKS
LK YELLOWSTONE   N/A     26  15  63 CALM      30.06F
W YELLOWSTONE  NOT AVBL

$$
WYZ002>013-054>058-071-098>099-200000-
NORTHERN WYOMING

CITY           SKY/WX    TMP DP  RH WIND       PRES   REMARKS
JACKSON        FAIR      25  17  72 NE6       30.09F WCI  18
CODY           FAIR      48   1  14 W17G25    29.86F
GREYBULL       FAIR      36  23  59 S7        29.89F WCI  30
WORLAND        FAIR      33  26  75 CALM      29.90F
SHERIDAN       FAIR      41  32  70 CALM      29.77F
BUFFALO        FAIR      42  13  30 NW9       29.80S
GILLETTE       FAIR      47  17  30 SW18      29.79S
HULETT         FAIR      46  19  34 S12       29.81F
NEWCASTLE      FAIR      45  14  29 SE6G18    29.86F

$$
WYZ014>020-022>026-101>103-200000-
CENTRAL WYOMING

CITY           SKY/WX    TMP DP  RH WIND       PRES   REMARKS
BIG PINEY      FAIR      31  19  61 CALM      30.11R
PINEDALE       FAIR      32  18  55 S6        30.11S WCI  26
DUBOIS         FAIR      36   7  30 NW13G23   29.97R WCI  27
LANDER         FAIR      36  21  54 W5        29.93F WCI  32
RIVERTON       FAIR      37  20  50 SW9       29.94F WCI  30
CASPER         FAIR      41  16  36 SW25G35   29.93R
DOUGLAS        FAIR      47  17  30 W7        29.88F

$$
WYZ021-027>030-104>119-200000-
SOUTHERN WYOMING

CITY           SKY/WX    TMP DP  RH WIND       PRES   REMARKS
EVANSTON       FAIR      31  23  72 SW9       30.11F WCI  23
KEMMERER       FAIR      32  12  43 NW6       30.10F WCI  26
FORT BRIDGER   FAIR      28  17  64 CALM      30.12F
ROCK SPRINGS   FAIR      32  17  54 W7        30.10F WCI  26
DIXON          FAIR      34  18  52 SW5       30.16F WCI  30
RAWLINS        FAIR      34  16  47 SW18      30.06F WCI  23
SARATOGA       FAIR      34  18  51 N5        30.10F WCI  30
LARAMIE        FAIR      39  15  37 SW14      30.04F WCI  31
CHEYENNE       FAIR      48   7  18 SW32G39   29.98F
TORRINGTON     FAIR      50   6  16 W15       29.89S
PINE BLUFFS    FAIR      48   9  20 SW6       29.97F

$$




USA.gov is the U.S. government's official web portal to all federal, state and local government web resources and services.